AFR49J LFPG-EBCI

Flight info

Callsign AFR49J
Flight time 0h 34m
Altitude 20000
Route PG082 DCT PG086 DCT NEPAR DCT DIKOL DCT XERAM DCT MOPIL
Aircraft A320/M-SDE3FGHIRWY/LB1

Departure

Time 2026-05-05 14:46
Airport Charles de Gaulle International Airport (LFPG)

Arrival

Time 2026-05-05 15:20
Airport Brussels South Charleroi Airport (EBCI)
Time Latitude Longitude Altitude Speed Heading
2026-05-05 14:12 49.01723 2.54184 354 ft 0 kts 228°
2026-05-05 14:31 49.01734 2.54202 361 ft 2 kts 228°
2026-05-05 14:31 49.01744 2.54220 360 ft 2 kts 228°
2026-05-05 14:32 49.01755 2.54238 363 ft 2 kts 228°
2026-05-05 14:32 49.01766 2.54255 359 ft 2 kts 252°
2026-05-05 14:32 49.01767 2.54279 356 ft 2 kts 258°
2026-05-05 14:32 49.01770 2.54294 356 ft 2 kts 241°
2026-05-05 14:39 49.01772 2.54299 354 ft 0 kts 241°
2026-05-05 14:39 49.01773 2.54300 354 ft 2 kts 241°
2026-05-05 14:39 49.01774 2.54304 362 ft 0 kts 241°
2026-05-05 14:40 49.01777 2.54311 362 ft 0 kts 241°
2026-05-05 14:40 49.01790 2.54249 358 ft 14 kts 301°
2026-05-05 14:40 49.01821 2.54143 358 ft 6 kts 249°
2026-05-05 14:40 49.01804 2.54040 354 ft 17 kts 265°
2026-05-05 14:41 49.01794 2.53830 357 ft 19 kts 265°
2026-05-05 14:41 49.01785 2.53659 358 ft 13 kts 265°
2026-05-05 14:41 49.01778 2.53521 358 ft 14 kts 265°
2026-05-05 14:41 49.01767 2.53369 356 ft 16 kts 263°
2026-05-05 14:42 49.01758 2.53189 362 ft 18 kts 266°
2026-05-05 14:42 49.01748 2.52991 356 ft 20 kts 265°
2026-05-05 14:42 49.01736 2.52770 357 ft 21 kts 265°
2026-05-05 14:42 49.01725 2.52533 356 ft 21 kts 265°
2026-05-05 14:43 49.01759 2.52372 356 ft 17 kts 334°
2026-05-05 14:43 49.01877 2.52357 361 ft 18 kts 356°
2026-05-05 14:43 49.02003 2.52341 361 ft 13 kts 355°
2026-05-05 14:43 49.02020 2.52338 361 ft 0 kts 355°
2026-05-05 14:44 49.02023 2.52338 361 ft 2 kts 355°
2026-05-05 14:44 49.02059 2.52338 356 ft 9 kts
2026-05-05 14:44 49.02121 2.52408 362 ft 14 kts 72°
2026-05-05 14:45 49.02128 2.52486 356 ft 13 kts 85°
2026-05-05 14:45 49.02156 2.52964 362 ft 79 kts 86°
2026-05-05 14:45 49.02217 2.54107 360 ft 134 kts 85°
2026-05-05 14:45 49.02299 2.55745 413 ft 171 kts 82°
2026-05-05 14:46 49.02364 2.57443 1264 ft 161 kts 81°
2026-05-05 14:46 49.02462 2.59203 1872 ft 167 kts 78°
2026-05-05 14:46 49.02592 2.61003 2415 ft 180 kts 80°
2026-05-05 14:46 49.02716 2.63054 2753 ft 204 kts 82°
2026-05-05 14:47 49.02835 2.65279 3170 ft 224 kts 85°
2026-05-05 14:47 49.02956 2.67707 3877 ft 232 kts 84°
2026-05-05 14:47 49.03079 2.70180 4785 ft 235 kts 85°
2026-05-05 14:47 49.03253 2.72670 5622 ft 239 kts 75°
2026-05-05 14:48 49.04132 2.74794 6420 ft 244 kts 38°
2026-05-05 14:48 49.05727 2.75667 7259 ft 251 kts
2026-05-05 14:48 49.07496 2.75647 8049 ft 263 kts
2026-05-05 14:48 49.08752 2.75595 8510 ft 271 kts
2026-05-05 14:49 49.11298 2.75487 9690 ft 280 kts
2026-05-05 14:49 49.12623 2.75444 10181 ft 288 kts
2026-05-05 14:49 49.15415 2.75395 10584 ft 318 kts
2026-05-05 14:49 49.17711 2.75385 10846 ft 341 kts
2026-05-05 14:50 49.19307 2.75383 11209 ft 348 kts
2026-05-05 14:50 49.21781 2.75384 11895 ft 355 kts
2026-05-05 14:50 49.24285 2.75391 12601 ft 361 kts
2026-05-05 14:50 49.26817 2.75403 13313 ft 367 kts
2026-05-05 14:51 49.29355 2.75415 13990 ft 371 kts
2026-05-05 14:51 49.31961 2.75426 14633 ft 376 kts
2026-05-05 14:51 49.34601 2.75431 15268 ft 381 kts
2026-05-05 14:51 49.37267 2.75436 15895 ft 387 kts
2026-05-05 14:52 49.39981 2.75439 16553 ft 392 kts
2026-05-05 14:52 49.42722 2.75442 17195 ft 397 kts
2026-05-05 14:52 49.45504 2.75445 17790 ft 402 kts
2026-05-05 14:52 49.48314 2.75448 18329 ft 406 kts
2026-05-05 14:53 49.51154 2.75453 18810 ft 410 kts
2026-05-05 14:53 49.54016 2.75457 19307 ft 413 kts
2026-05-05 14:53 49.56901 2.75461 19704 ft 415 kts
2026-05-05 14:53 49.59804 2.75467 19815 ft 420 kts
2026-05-05 14:54 49.62777 2.75478 19841 ft 435 kts
2026-05-05 14:54 49.65828 2.75491 19835 ft 441 kts
2026-05-05 14:54 49.68912 2.75502 19840 ft 443 kts
2026-05-05 14:54 49.71988 2.75509 19833 ft 442 kts
2026-05-05 14:55 49.75076 2.75513 19838 ft 445 kts
2026-05-05 14:55 49.78139 2.75569 19839 ft 445 kts
2026-05-05 14:55 49.81228 2.76260 19839 ft 443 kts 15°
2026-05-05 14:55 49.84122 2.77694 19838 ft 441 kts 25°
2026-05-05 14:56 49.86845 2.79838 19844 ft 438 kts 33°
2026-05-05 14:56 49.89399 2.82413 19848 ft 438 kts 34°
2026-05-05 14:56 49.91949 2.85005 19850 ft 438 kts 35°
2026-05-05 14:56 49.94507 2.87603 19848 ft 439 kts 34°
2026-05-05 14:57 49.97058 2.90195 19849 ft 439 kts 36°
2026-05-05 14:57 49.99613 2.92795 19846 ft 439 kts 36°
2026-05-05 14:57 50.02163 2.95396 19845 ft 439 kts 36°
2026-05-05 14:57 50.04712 2.98003 19847 ft 438 kts 34°
2026-05-05 14:58 50.07267 3.00620 19847 ft 438 kts 34°
2026-05-05 14:58 50.09813 3.03232 19845 ft 438 kts 34°
2026-05-05 14:58 50.12354 3.05841 19850 ft 438 kts 36°
2026-05-05 14:58 50.14897 3.08456 19850 ft 438 kts 36°
2026-05-05 14:59 50.17442 3.11078 19857 ft 438 kts 36°
2026-05-05 14:59 50.19988 3.13704 19870 ft 438 kts 34°
2026-05-05 14:59 50.22532 3.16328 19878 ft 438 kts 34°
2026-05-05 14:59 50.25072 3.18950 19878 ft 437 kts 34°
2026-05-05 15:00 50.27609 3.21572 19877 ft 437 kts 35°
2026-05-05 15:00 50.29283 3.23302 19866 ft 437 kts 35°
2026-05-05 15:00 50.32681 3.26817 19854 ft 437 kts 35°
2026-05-05 15:00 50.35217 3.29445 19852 ft 438 kts 34°
2026-05-05 15:01 50.37763 3.32089 19861 ft 438 kts 34°
2026-05-05 15:01 50.40246 3.34674 19878 ft 418 kts 34°
2026-05-05 15:01 50.42642 3.37176 19880 ft 410 kts 35°
2026-05-05 15:01 50.44978 3.39621 19880 ft 409 kts 35°
2026-05-05 15:02 50.47370 3.42132 19883 ft 408 kts 35°
2026-05-05 15:02 50.49701 3.44581 19882 ft 408 kts 35°
2026-05-05 15:02 50.52018 3.47280 19413 ft 410 kts 43°
2026-05-05 15:02 50.53919 3.50604 18726 ft 408 kts 56°
2026-05-05 15:03 50.55318 3.54380 18121 ft 403 kts 66°
2026-05-05 15:03 50.56249 3.58504 17464 ft 399 kts 75°
2026-05-05 15:03 50.57029 3.62668 16903 ft 394 kts 75°
2026-05-05 15:03 50.57808 3.66776 16332 ft 390 kts 73°
2026-05-05 15:04 50.58580 3.70838 15824 ft 385 kts 74°
2026-05-05 15:04 50.59350 3.74888 15288 ft 396 kts 74°
2026-05-05 15:04 50.60144 3.79105 14792 ft 402 kts 74°
2026-05-05 15:04 50.60923 3.83257 14595 ft 387 kts 74°
2026-05-05 15:05 50.62411 3.91203 13839 ft 372 kts 74°
2026-05-05 15:05 50.63141 3.95100 13233 ft 369 kts 74°
2026-05-05 15:05 50.63858 3.98957 12682 ft 365 kts 74°
2026-05-05 15:06 50.64562 4.02766 12102 ft 362 kts 74°
2026-05-05 15:06 50.65264 4.06565 11585 ft 357 kts 74°
2026-05-05 15:06 50.65943 4.10240 11454 ft 341 kts 74°
2026-05-05 15:06 50.66590 4.13765 11326 ft 327 kts 74°
2026-05-05 15:07 50.67208 4.17147 11203 ft 314 kts 74°
2026-05-05 15:07 50.67800 4.20389 11073 ft 302 kts 74°
2026-05-05 15:07 50.68312 4.23541 10949 ft 291 kts 83°
2026-05-05 15:07 50.68232 4.26682 10534 ft 291 kts 97°
2026-05-05 15:08 50.67909 4.29879 10059 ft 294 kts 99°
2026-05-05 15:08 50.67398 4.32910 9933 ft 285 kts 107°
2026-05-05 15:08 50.66781 4.35864 9667 ft 282 kts 107°
2026-05-05 15:08 50.66152 4.38767 9372 ft 279 kts 107°
2026-05-05 15:09 50.65517 4.41653 9057 ft 277 kts 108°
2026-05-05 15:09 50.64888 4.44516 8686 ft 276 kts 108°
2026-05-05 15:09 50.64265 4.47357 8304 ft 274 kts 108°
2026-05-05 15:09 50.63651 4.50195 7900 ft 273 kts 107°
2026-05-05 15:10 50.63036 4.53011 7556 ft 271 kts 107°
2026-05-05 15:10 50.62418 4.55794 7195 ft 267 kts 108°
2026-05-05 15:10 50.61811 4.58554 6775 ft 267 kts 107°
2026-05-05 15:10 50.61207 4.61312 6371 ft 266 kts 108°
2026-05-05 15:11 50.60588 4.64037 6034 ft 262 kts 113°
2026-05-05 15:11 50.59593 4.66363 5909 ft 251 kts 127°
2026-05-05 15:11 50.58519 4.68460 5774 ft 241 kts 127°
2026-05-05 15:11 50.57497 4.70479 5662 ft 230 kts 123°
2026-05-05 15:12 50.56933 4.72746 5404 ft 221 kts 91°
2026-05-05 15:12 50.57117 4.75121 5064 ft 220 kts 76°
2026-05-05 15:12 50.57496 4.77450 4749 ft 219 kts 74°
2026-05-05 15:12 50.57891 4.79748 4448 ft 217 kts 73°
2026-05-05 15:13 50.58279 4.82030 4119 ft 215 kts 73°
2026-05-05 15:13 50.58656 4.84306 3786 ft 215 kts 76°
2026-05-05 15:13 50.58672 4.86598 3490 ft 215 kts 102°
2026-05-05 15:13 50.57947 4.88695 3177 ft 220 kts 132°
2026-05-05 15:14 50.56632 4.89899 2997 ft 223 kts 165°
2026-05-05 15:14 50.55071 4.89874 2997 ft 230 kts 197°
2026-05-05 15:14 50.53733 4.88540 3000 ft 230 kts 231°
2026-05-05 15:14 50.53069 4.86384 2994 ft 214 kts 264°
2026-05-05 15:15 50.53164 4.84123 2992 ft 203 kts 291°
2026-05-05 15:15 50.53579 4.82015 3007 ft 203 kts 291°
2026-05-05 15:15 50.53988 4.79911 3001 ft 202 kts 291°
2026-05-05 15:15 50.54385 4.77821 2994 ft 203 kts 287°
2026-05-05 15:16 50.54497 4.75611 2998 ft 205 kts 265°
2026-05-05 15:16 50.54111 4.73448 3000 ft 207 kts 247°
2026-05-05 15:16 50.53506 4.71348 3000 ft 209 kts 247°
2026-05-05 15:16 50.52916 4.69294 2999 ft 209 kts 247°
2026-05-05 15:17 50.52317 4.67210 2985 ft 209 kts 247°
2026-05-05 15:17 50.51742 4.65216 2996 ft 191 kts 248°
2026-05-05 15:17 50.51210 4.63367 2854 ft 182 kts 248°
2026-05-05 15:17 50.50704 4.61611 2636 ft 171 kts 249°
2026-05-05 15:18 50.50223 4.59943 2454 ft 165 kts 249°
2026-05-05 15:18 50.49755 4.58320 2213 ft 163 kts 249°
2026-05-05 15:18 50.49297 4.56735 2013 ft 155 kts 249°
2026-05-05 15:18 50.48860 4.55220 1787 ft 153 kts 249°
2026-05-05 15:19 50.48417 4.53686 1577 ft 154 kts 251°
2026-05-05 15:19 50.47976 4.52160 1365 ft 154 kts 249°
2026-05-05 15:19 50.47535 4.50638 1145 ft 150 kts 248°
2026-05-05 15:19 50.47101 4.49168 940 ft 147 kts 250°
2026-05-05 15:20 50.46670 4.47683 737 ft 149 kts 252°
2026-05-05 15:20 50.46253 4.46221 625 ft 141 kts 251°
2026-05-05 15:20 50.45926 4.45064 629 ft 65 kts 244°
2026-05-05 15:20 50.45818 4.44703 631 ft 25 kts 245°
2026-05-05 15:21 50.45734 4.44629 632 ft 3 kts 166°
2026-05-05 15:21 50.45732 4.44631 631 ft 0 kts 162°
2026-05-05 15:22 50.45724 4.44635 630 ft 4 kts 159°
2026-05-05 15:22 50.45700 4.44668 633 ft 5 kts 127°
2026-05-05 15:22 50.45701 4.44716 629 ft 4 kts 72°
2026-05-05 15:23 50.45719 4.44775 635 ft 9 kts 64°
2026-05-05 15:23 50.45757 4.44906 630 ft 16 kts 67°
2026-05-05 15:23 50.45805 4.45075 630 ft 18 kts 64°
2026-05-05 15:23 50.45861 4.45270 630 ft 21 kts 66°
2026-05-05 15:24 50.45921 4.45482 629 ft 19 kts 63°
2026-05-05 15:24 50.45979 4.45679 628 ft 21 kts 64°
2026-05-05 15:24 50.46038 4.45897 629 ft 22 kts 72°
2026-05-05 15:24 50.46080 4.46134 631 ft 24 kts 66°
2026-05-05 15:25 50.46137 4.46328 631 ft 0 kts 65°
2026-05-05 15:25 50.46137 4.46329 630 ft 1 kts 65°
2026-05-05 15:25 50.46166 4.46426 622 ft 17 kts 66°
2026-05-05 15:26 50.46186 4.46544 616 ft 12 kts 105°
2026-05-05 15:26 50.46135 4.46602 629 ft 0 kts 157°